Weather History for KMRT - January, 2013

Change the Weather History Date:

Friday, January 11, 2013

  Actual Average (KDLZ) Record (KDLZ)
Temperature  
Mean Temperature 48 °F -  
Max Temperature 57 °F 30 °F 58 °F (1975)
Min Temperature 38 °F 13 °F -11 °F (1982)
Degree Days  
Heating Degree Days 18    
Moisture  
Dew Point 42 °F    
Average Humidity 83    
Maximum Humidity 95    
Minimum Humidity 64    
Precipitation  
Precipitation 0.32 in - - ()
Sea Level Pressure  
Sea Level Pressure 29.97 in    
Wind  
Wind Speed 7 mph (SSW)    
Max Wind Speed 18 mph    
Max Gust Speed 23 mph    
Visibility 8 miles    
Events      
Averages and records for this station are not official NWS values.
T = Trace of Precipitation, MM = Missing Value Source: NWS Daily Summary

Daily Weather History Graph

Daily Weather History Graph

Search for Another Location

Airport or City:

Trip Planner

Search our weather history database for the weather conditions in past years. The results will help you decide how hot, cold, wet, or windy it might be!

Date:

Astronomy

Jan. 11, 2013 Rise Set
Actual Time 7:55 AM EST 5:28 PM EST
Civil Twilight 7:25 AM EST 5:58 PM EST
Nautical Twilight 6:51 AM EST 6:31 PM EST
Astronomical Twilight 6:18 AM EST 7:04 PM EST
Moon 7:27 AM EST (1/11) 5:44 PM EST (1/11)
Length of Visible Light 10h 32m
Length of Day
9h 32m
Waning Crescent, 0% of the Moon is Illuminated
Jan 11
Waning Crescent
Jan 11
New
Jan 18
First Quarter
Jan 26
Full
Feb 3
Last Quarter

Hourly Weather History & Observations

Time (EST) Temp. Windchill Dew Point Humidity Pressure Visibility Wind Dir Wind Speed Gust Speed Precip Events Conditions
12:15 AM 39.7 °F - 28.4 °F 64% 30.15 in 10.0 mi Calm Calm - N/A   Overcast
12:34 AM 39.7 °F 36.5 °F 28.9 °F 65% 30.14 in 10.0 mi SSE 4.6 mph - N/A   Overcast
12:54 AM 40.1 °F - 29.3 °F 65% 30.14 in 10.0 mi Calm Calm - N/A   Overcast
1:15 AM 40.1 °F 38.0 °F 30.2 °F 68% 30.13 in 10.0 mi SSE 3.5 mph - N/A   Overcast
1:34 AM 39.9 °F 37.8 °F 30.2 °F 68% 30.12 in 10.0 mi SE 3.5 mph - N/A   Overcast
1:54 AM 40.1 °F 38.0 °F 30.6 °F 69% 30.12 in 10.0 mi SSE 3.5 mph - N/A   Overcast
2:15 AM 40.1 °F 38.0 °F 30.9 °F 70% 30.11 in 10.0 mi South 3.5 mph - N/A   Overcast
2:34 AM 40.1 °F 36.9 °F 31.1 °F 70% 30.09 in 10.0 mi SE 4.6 mph - N/A   Overcast
2:54 AM 39.4 °F - 31.5 °F 73% 30.10 in 10.0 mi Calm Calm - N/A   Overcast
3:15 AM 38.8 °F - 32.2 °F 77% 30.09 in 3.0 mi Calm Calm - 0.01 in   Overcast
3:34 AM 38.8 °F 36.5 °F 32.7 °F 79% 30.07 in 5.0 mi SSE 3.5 mph - 0.02 in   Overcast
3:54 AM 40.8 °F 36.9 °F 36.0 °F 83% 30.04 in 5.0 mi SSE 5.8 mph - 0.05 in   Overcast
4:15 AM 41.0 °F 37.1 °F 36.3 °F 83% 30.03 in 10.0 mi South 5.8 mph - N/A   Overcast
4:34 AM 41.9 °F 39.0 °F 36.3 °F 81% 30.02 in 10.0 mi SSE 4.6 mph - N/A   Mostly Cloudy
4:54 AM 41.4 °F 36.8 °F 35.6 °F 80% 30.01 in 10.0 mi South 6.9 mph - N/A   Scattered Clouds
5:13 AM 42.3 °F 38.6 °F 37.0 °F 82% 29.99 in 10.0 mi South 5.8 mph - N/A   Scattered Clouds
5:34 AM 42.8 °F 38.6 °F 37.9 °F 83% 29.98 in 10.0 mi South 6.9 mph - N/A   Mostly Cloudy
5:54 AM 42.4 °F 35.3 °F 37.9 °F 84% 29.99 in 10.0 mi South 13.8 mph - N/A   Overcast
6:14 AM 43.2 °F 36.2 °F 39.9 °F 88% 29.97 in 4.0 mi South 13.8 mph 19.6 mph 0.01 in   Overcast
6:34 AM 43.2 °F 37.9 °F 40.5 °F 90% 29.95 in 3.0 mi South 9.2 mph - 0.04 in   Overcast
6:54 AM 43.9 °F 37.5 °F 41.4 °F 91% 29.94 in 10.0 mi South 12.7 mph 16.1 mph 0.05 in   Overcast
7:14 AM 44.1 °F 36.8 °F 41.9 °F 92% 29.95 in 5.0 mi South 16.1 mph - N/A   Overcast
7:34 AM 43.9 °F 36.8 °F 41.9 °F 93% 29.96 in 4.0 mi South 15.0 mph - 0.01 in   Overcast
7:54 AM 44.1 °F 39.0 °F 42.3 °F 93% 29.95 in 2.0 mi South 9.2 mph 16.1 mph 0.04 in   Overcast
8:14 AM 43.7 °F 39.7 °F 42.1 °F 94% 29.94 in 1.5 mi South 6.9 mph - 0.02 in   Overcast
8:34 AM 45.1 °F 40.3 °F 43.7 °F 95% 29.94 in 1.5 mi South 9.2 mph - 0.04 in   Overcast
8:54 AM 45.1 °F 40.3 °F 43.5 °F 94% 29.95 in 1.2 mi SW 9.2 mph - 0.06 in   Overcast
9:14 AM 44.2 °F 38.8 °F 42.8 °F 95% 29.96 in 0.5 mi SSW 10.4 mph - 0.01 in   Overcast
9:34 AM 44.6 °F 39.2 °F 43.2 °F 95% 29.94 in 0.8 mi SSW 10.4 mph - 0.02 in   Overcast
9:54 AM 44.4 °F 38.2 °F 43.0 °F 95% 29.93 in 3.0 mi South 12.7 mph - 0.04 in   Overcast
10:14 AM 46.4 °F 40.4 °F 44.8 °F 94% 29.90 in 3.0 mi South 13.8 mph 18.4 mph 0.01 in   Overcast
10:34 AM 47.1 °F - 45.5 °F 94% 29.90 in 10.0 mi South 18.4 mph 23.0 mph 0.02 in   Overcast
10:54 AM 47.3 °F - 45.7 °F 94% 29.90 in 10.0 mi SSW 17.3 mph - 0.03 in   Overcast
11:14 AM 48.6 °F - 47.1 °F 95% 29.90 in 10.0 mi SSW 15.0 mph - N/A   Overcast
11:34 AM 49.6 °F - 47.8 °F 94% 29.91 in 10.0 mi SSW 15.0 mph 21.9 mph 0.01 in   Mostly Cloudy
11:54 AM 50.4 °F - 48.4 °F 93% 29.90 in 10.0 mi SW 15.0 mph - 0.02 in   Overcast
12:14 PM 51.8 °F - 49.5 °F 92% 29.89 in 10.0 mi SW 12.7 mph - N/A   Overcast
12:34 PM 52.2 °F - 49.3 °F 90% 29.89 in 10.0 mi SW 10.4 mph - 0.01 in   Overcast
12:54 PM 52.9 °F - 49.6 °F 89% 29.89 in 10.0 mi SW 9.2 mph - 0.01 in   Mostly Cloudy
1:15 PM 55.0 °F - 49.1 °F 80% 29.89 in 10.0 mi WSW 9.2 mph - N/A   Mostly Cloudy
1:34 PM 56.3 °F - 49.6 °F 78% 29.89 in 10.0 mi WSW 12.7 mph - N/A   Overcast
1:54 PM 56.3 °F - 48.6 °F 75% 29.89 in 10.0 mi WSW 12.7 mph 19.6 mph 0.01 in   Overcast
2:14 PM 57.0 °F - 48.7 °F 74% 29.89 in 10.0 mi WSW 12.7 mph - N/A   Overcast
2:34 PM 56.8 °F - 48.2 °F 73% 29.90 in 10.0 mi WSW 12.7 mph 18.4 mph N/A   Overcast
2:54 PM 57.2 °F - 47.8 °F 71% 29.90 in 10.0 mi WSW 12.7 mph - 0.01 in   Overcast
3:14 PM 57.4 °F - 46.9 °F 68% 29.91 in 10.0 mi WSW 15.0 mph 19.6 mph N/A   Scattered Clouds
3:34 PM 56.5 °F - 47.3 °F 71% 29.92 in 10.0 mi SW 10.4 mph - N/A   Mostly Cloudy
3:54 PM 56.3 °F - 47.1 °F 71% 29.92 in 10.0 mi SW 8.1 mph - N/A   Overcast
4:14 PM 56.7 °F - 46.4 °F 69% 29.93 in 10.0 mi WSW 13.8 mph 19.6 mph N/A   Overcast
4:34 PM 55.9 °F - 46.4 °F 70% 29.93 in 10.0 mi WSW 9.2 mph - N/A   Overcast
4:54 PM 54.3 °F - 46.4 °F 75% 29.93 in 10.0 mi WSW 6.9 mph - N/A   Mostly Cloudy
5:15 PM 53.4 °F - 45.5 °F 75% 29.94 in 10.0 mi SW 6.9 mph - N/A   Scattered Clouds
5:34 PM 51.6 °F - 44.8 °F 77% 29.94 in 10.0 mi SW 5.8 mph - N/A   Clear
5:54 PM 50.7 °F - 44.2 °F 78% 29.95 in 10.0 mi SW 6.9 mph - N/A   Clear
6:14 PM 46.9 °F - 42.6 °F 85% 29.94 in 10.0 mi SSW 5.8 mph - N/A   Scattered Clouds
6:34 PM 48.7 °F - 43.5 °F 82% 29.95 in 10.0 mi SSW 5.8 mph - N/A   Scattered Clouds
6:54 PM 46.9 °F - 43.0 °F 86% 29.95 in 10.0 mi SSW 6.9 mph - N/A   Clear
7:14 PM 50.0 °F - 44.6 °F 82% 29.96 in 10.0 mi SSW 8.1 mph - N/A   Clear
7:34 PM 49.6 °F - 45.1 °F 84% 29.95 in 10.0 mi SSW 8.1 mph - N/A   Clear
7:54 PM 49.5 °F - 44.8 °F 84% 29.95 in 10.0 mi South 8.1 mph - N/A   Clear
8:14 PM 49.1 °F - 45.5 °F 87% 29.95 in 10.0 mi South 9.2 mph - N/A   Clear
8:34 PM 49.3 °F - 44.8 °F 84% 29.96 in 10.0 mi South 8.1 mph - N/A   Clear
8:54 PM 48.9 °F - 44.8 °F 86% 29.95 in 10.0 mi South 9.2 mph - N/A   Clear
9:14 PM 48.0 °F - 44.6 °F 88% 29.96 in 10.0 mi SSW 6.9 mph - N/A   Clear
9:34 PM 49.1 °F - 44.8 °F 85% 29.95 in 10.0 mi South 9.2 mph - N/A   Clear
9:54 PM 48.2 °F - 44.8 °F 88% 29.95 in 10.0 mi SSW 9.2 mph - N/A   Clear
10:14 PM 48.0 °F - 45.0 °F 89% 29.95 in 10.0 mi South 8.1 mph - N/A   Clear
10:34 PM 47.7 °F - 45.1 °F 91% 29.95 in 7.0 mi South 8.1 mph - N/A   Clear
10:54 PM 47.7 °F - 45.1 °F 91% 29.95 in 7.0 mi SSW 9.2 mph - N/A   Clear
11:14 PM 47.5 °F - 44.8 °F 90% 29.95 in 7.0 mi South 10.4 mph - N/A   Clear
11:34 PM 47.7 °F - 44.6 °F 89% 29.95 in 10.0 mi SSW 11.5 mph - N/A   Clear
11:54 PM 47.7 °F - 43.9 °F 87% 29.94 in 10.0 mi SSW 10.4 mph - N/A   Clear